Location: Rowland
(34.5359°N, 79.2929°W)
Time: 17:03:36
(UTC+00:00)

S-56A Canister/Altair - Pass Details

Date: 05 October 2022
Orbit: 638 x 2494 km, 38.9° (Epoch: 06 December)

Event Time Altitude Azimuth Distance (km) Brightness Sun altitude
Exits shadow 08:25:18 65° 342° (NNW) 1,514 8.8 -35.2°
Maximum altitude 08:25:46 66° 359° (N) 1,480 8.8 -35.1°
Drops below altitude 10° 08:32:46 10° 82° (E) 2,843 11.2 -33.7°
Sets 08:35:00 0° 85° (E) 3,608 12.0 -33.3°
